Flag for South Africa Weather past 2 weeks in Bloemfontein, South Africa

Now
43 °F

Quite cool.


Feels Like: 36 °F
Forecast: 44 / 61 °F
Wind: 13 mph from South

Location: Bloemfontein Airport

Current Time: Sep 3, 2015 at 2:33:28 AM

Latest Report: Sep 3, 2015 at 2:00 AM


Visibility: N/A

Pressure: 30.33 "Hg (25.56 "Hg at 1397m altitude)

Humidity: 71%

Dew point: 34 °F

Location of BloemfonteinLocation

Historic Weather in Bloemfontein — Graph

°F

Bloemfontein temperature yesterday

Maximum temperature yesterday: 64 °F (at 2:00 PM)
Minimum temperature yesterday: 39 °F (at 6:00 AM)
Average temperature yesterday: 51 °F

Past Weeks' High & Low Weather Summary

 TemperatureHumidityPressure
High84 °F (Aug 28, 2:00 PM)87% (Sep 1, 7:00 AM)30.36 "Hg (Sep 1, 7:00 AM)
Low34 °F (Aug 21, 6:00 AM)12% (Aug 28, 2:00 PM)29.92 "Hg (Aug 31, 6:00 PM)
Average61 °F42%30.19 "Hg
* Reported Aug 19 1:00 AM — Sep 3 1:00 AM, Bloemfontein, Weather by CustomWeather, © 2015

Note: Actual official high and low records may vary slightly from our data, if they occured in-between our weather recording intervals... More about our weather records

Advertising

Bloemfontein weather history for previous 24 hours

 ConditionsComfort  
Time TempWeatherWind HumidityBarometerVisibility
1:00 AM
Thu, Sep 3
45 °FQuite cool.14 mph66%30.33 "HgN/A
12:00 AM45 °FQuite cool.9 mph61%30.33 "HgN/A
11:00 PM
Wed, Sep 2
46 °FCool.12 mph53%30.30 "HgN/A
10:00 PM46 °FCool.13 mph43%30.30 "HgN/A
9:00 PM48 °FCool.8 mph37%30.27 "HgN/A
8:00 PM52 °FClear.10 mph32%30.24 "Hg10 mi
7:00 PM54 °FClear.8 mph30%30.24 "Hg10 mi
6:00 PM59 °FPassing clouds.9 mph25%30.24 "HgN/A
5:00 PM63 °FClear.14 mph22%30.21 "Hg10 mi
4:00 PM64 °FPassing clouds.14 mph21%30.21 "HgN/A
3:00 PM64 °FPassing clouds.14 mph21%30.21 "HgN/A
2:00 PM64 °FSunny.9 mph21%30.24 "Hg10 mi
1:00 PM63 °FPassing clouds.9 mph25%30.21 "HgN/A
12:00 PM61 °FPassing clouds.10 mph29%30.24 "HgN/A
11:00 AM59 °FSunny.10 mph31%30.30 "Hg10 mi
10:00 AM55 °FSunny.5 mph41%30.27 "Hg10 mi
9:00 AM50 °FPassing clouds.3 mph58%30.27 "HgN/A
8:00 AM45 °FSunny.2 mph71%30.24 "Hg10 mi
7:00 AM39 °FSunny.5 mph81%30.21 "Hg10 mi
6:00 AM39 °FSunny.6 mph81%30.21 "Hg10 mi
5:00 AM41 °FClear.3 mph81%30.18 "Hg10 mi
4:00 AM41 °FQuite cool.2 mph81%30.18 "HgN/A
3:00 AM41 °FQuite cool.8 mph81%30.21 "HgN/A
2:00 AM43 °FQuite cool.2 mph66%30.24 "HgN/A
Weather by CustomWeather, © 2015

See weather overviewHow to use our weather pages